Weather Roundup
Issued by NWS

Home | Current Version | Previous Version | Graphics & Text | Print | Product List | Glossary Off
Versions: 1 2 3 4 5 6 7 8 9 10 11 12 13 14 15 16 17 18 19 20 21 22 23 24 25 26 27 28 29 30 31 32 33 34 35 36 37 38 39 40 41 42 43 44 45 46 47 48 49 50

000
NZUS93 KARX 281210
HRRWXR

CURRENT HOURLY OBSERVATIONS ACROSS
MUCH OF THE UPPER MISSISSIPPI VALLEY
NATIONAL WEATHER SERVICE LA CROSSE WI
700 AM CDT TUE MAR 28 2017


...SOUTHEAST MINNESOTA...


CITY           SKY/WX    TMP DP  RH WIND       PRES   REMARKS
ROCHESTER      FOG       34  34 100 CALM      30.09R VSB 1/4
ROCHESTER/MAYO FAIR      32  32 100 CALM      30.10R
WINONA         FOG       32  32 100 NW3       30.13R VSB 1/2
AUSTIN         CLEAR     30  28  93 CALM      30.09R
ALBERT LEA     CLOUDY    30  30 100 CALM      30.09R VSB<1/4
DODGE CENTER   FOG       28  28 100 CALM      30.08F VSB 1/4
PRESTON        PTCLDY    34  32  94 CALM      30.09S FOG
OWATONNA       CLEAR     30  28  93 E3        30.09S
FARIBAULT      FOG       30  28  93 CALM      30.10R VSB 1/4
$$

...ELSEWHERE IN MINNESOTA...


CITY           SKY/WX    TMP DP  RH WIND       PRES   REMARKS
MINNEAPOLIS    PTCLDY    36  33  89 CALM      30.10R
INTNL FALLS    PTCLDY    35  27  72 NE7       30.11R WCI  29
DULUTH         CLEAR     26  23  88 CALM      30.09R
RED WING       FOG       30  28  93 CALM      30.11R VSB 1/4
REDWOOD FALLS  MOCLDY    38  32  79 N3        30.09R
MANKATO        FOG       34  34 100 SE5       30.09S VSB 1/4 WCI  30
WORTHINGTON    CLEAR     33  32  96 W5        30.09R WCI  29
FAIRMONT       CLEAR     32  31  96 CALM      30.09R FOG
$$

...SOUTHWEST WISCONSIN...


CITY           SKY/WX    TMP DP  RH WIND       PRES   REMARKS
LA CROSSE      CLEAR     32  32 100 N3        30.10S FOG
PRAIRIE DU CHI CLOUDY    44  41  91 CALM      30.09R
BOSCOBEL       CLOUDY    45  41  86 NE3       30.10R
LONE ROCK      CLOUDY    44  40  85 CALM      30.10R
PLATTEVILLE    CLOUDY    44  44 100 NE7       30.07R
FORT MC COY    CLOUDY    37  36  98 CALM      30.11S
CAMP DOUGLAS   CLOUDY    39  37  93 CALM      30.10R
MAUSTON-NEW LI CLOUDY    40  39  95 CALM      30.09R
VIROQUA        CLOUDY    40  40  98 CALM      30.08R
WIS DELLS      CLOUDY    39  38  97 NE5       30.09S
$$

...ELSEWHERE IN WISCONSIN...


CITY           SKY/WX    TMP DP  RH WIND       PRES   REMARKS
MILWAUKEE      CLOUDY    41  36  82 N8        30.08R
MADISON        CLOUDY    41  37  86 NE10      30.09R
GREEN BAY      CLOUDY    33  33 100 N6        30.11R WCI  28
EAU CLAIRE     FOG       29  29 100 CALM      30.10R VSB 1/4
BLACK RVR FLS  CLOUDY    28  28 100 CALM      30.11R
MEDFORD        CLEAR     26  26  97 CALM      30.09R
WAUSAU         PTCLDY    28  27  96 NW3       30.10R
WIS RAPIDS     CLOUDY    38  38 100 CALM      30.12R
MARSHFIELD     PTCLDY    28  24  85 CALM      30.09R FOG
RICE LAKE      CLEAR     29  29  99 CALM      30.13R
$$

...NORTHEAST IOWA...


CITY           SKY/WX    TMP DP  RH WIND       PRES   REMARKS
WATERLOO       CLOUDY    44  41  89 NE5       30.07R
DUBUQUE        FOG       44  44 100 NE7       30.06R VSB 1/4
DECORAH        CLOUDY    41  39  93 NE5       30.07S
MASON CITY     FOG       30  30 100 N5        30.09R VSB 1/2 WCI  25
CHARLES CITY   CLOUDY    43  43 100 NE8       30.08S
OELWEIN        CLOUDY    43  43 100 N5        30.08R
$$

...ELSEWHERE IN IOWA...


CITY           SKY/WX    TMP DP  RH WIND       PRES   REMARKS
DES MOINES     CLOUDY    48  41  76 NE3       30.07R
IOWA CITY      CLOUDY    48  44  86 N6        30.08R
FORT DODGE     CLOUDY    30  28  93 CALM      30.08S VSB 1/4
MARSHALLTOWN   CLOUDY    44  43  96 NE7       30.06R
CEDAR RAPIDS   CLOUDY    45  45 100 N6        30.06R
$$

...NORTHERN ILLINOIS...


CITY           SKY/WX    TMP DP  RH WIND       PRES   REMARKS
CHICAGO-OHARE  CLOUDY    41  35  79 NE13      30.06R
CHICAGO-MIDWAY CLOUDY    40  36  86 N18G24    30.07R WCI  31
MOLINE         CLOUDY    48  44  86 NE5       30.05R
ROCKFORD       CLOUDY    43  38  82 NE10      30.10R
PEORIA         CLOUDY    47  44  90 NE5       30.05R
$$

NOTE: "FAIR" INDICATES FEW OR NO CLOUDS BELOW 12,000 FEET WITH NO
SIGNIFICANT WEATHER AND/OR OBSTRUCTIONS TO VISIBILITY. WIND
SPEEDS ARE IN MILES-PER-HOUR.




USA.gov is the U.S. government's official web portal to all federal, state and local government web resources and services.